Погода в Анадыре

Россия / Чукотский автономный округ     64°43′59″N   177°30′32″E
темп.,
°C
ветер,
м/с
пор.,
м/с
влажн.,
%
обл.,
%
осадки,
мм/ч
давл.,
гПа
погр.,
м
11 апреля, вс
вс1100:00−14св4685100 0.0 101798
03:00−16св4585100 0.0 101785
06:00−16св4782100 0.0 1017108
09:00−14ссв6773100 0.0 1017287
12:00−12ссв7964100 0.0 1016618
15:00−12св91468100 0.0 1016820
18:00−13ссв91467100 0.0 1016448
21:00−14ссв81368100 0.0 1016361
12 апреля, пн
пн1200:00−17с91276100 0.0 1016245
03:00−18с91378100 0.0 1016238
06:00−18с81378100 0.0 1016281
09:00−16с81176100 0.0 1016412
12:00−14с81171100 0.0 1015574
15:00−13с71272100 0.0 1014607
18:00−14с71271100 0.0 1013316
21:00−15ссз71174100 0.0 1013205
13 апреля, вт
вт1300:00−18ссз61084100 0.0 1012134
03:00−19сз6985100 0.0 1012124
06:00−19сз6984100 0.0 1011159
09:00−16ссз71080100 0.0 1010332
12:00−10с81084100 0.1 1009735
15:00−9с81086100 0.1 1008743
18:00−10с6993100 0.4 1009517
21:00−11с4795100 0.2 1010173
14 апреля, ср
ср1400:00−12ссз5795100 0.6 1011216
03:00−12ссз4795100 0.2 1012156
06:00−13ссз4695100 0.4 1014182
09:00−11ссз4590100 0.1 1015348
12:00−10сз5686100 0.2 1017550
15:00−10сз788799 0.1 1018420
18:00−14зсз598881 0.1 1020159
21:00−18зсз2296100 0.0 102214
15 апреля, чт
чт1500:00−21сз2210049 0.0 10249
03:00−22сз1210065 0.0 10249
06:00−22с119932 0.0 10259
09:00−18ссз119317 0.0 102581
12:00−14св11825 0.0 1025139
15:00−11вюв22805 0.0 1024189
18:00−14юв339266 0.0 102323
21:00−14юв4589100 0.0 102358